Dewpoint
57 56 55 53 52 51 49 46 41 38 36 34 34 30 30 34 28 29 28 30 30 30 30 28 25 29 33 31 30 29 30 27 26 25 26 26 28 25 24 22 26 21 22 24
57 56 54 53 52 51 47 47 42 39 35 34 33 31 31 29 27 28 28 28 29 33 32 32 31 31 34 33 32 38 36 33 28 26 25 34 32 31 31 26 23 31 23 26
57 55 54 52 52 51 49 47 36 36 36 37 37 36 33 31 31 30 31 32 32 31 31 32 32 32 32 34 33 55 43 30 29 26 29 30 30 31 32 31 30 28 26 28
56 55 54 53 51 50 49 47 39 40 34 33 35 36 37 33 31 31 33 34 32 32 34 34 32 33 34 34 49 38 35 33 32 31 30 30 29 29 30 32 33 32 30 29
56 55 54 53 52 50 49 41 41 42 36 40 38 37 35 34 34 35 35 34 35 35 35 37 37 36 38 37 36 36 35 36 35 33 31 30 29 29 28 28 29 29 29 28
55 55 54 53 52 49 43 42 44 41 40 34 34 37 38 36 36 36 34 35 34 33 36 35 34 32 30 32 33 32 32 31 33 30 30 29 28 28 27 27 29 32 36 41
55 55 54 54 52 50 48 43 44 42 35 31 34 33 34 32 36 38 33 31 33 34 31 26 22 19 20 22 24 24 28 32 30 26 28 25 26 31 36 33 43 44 45 50
54 54 54 54 53 52 47 43 45 43 39 29 30 28 30 30 35 30 29 29 32 30 27 28 29 26 28 27 27 27 28 29 29 28 25 25 29 41 40 41 41 46 46 47
53 53 53 54 53 52 48 42 47 45 40 35 34 29 29 32 30 31 30 30 30 29 28 26 30 25 28 28 27 25 26 32 29 29 28 26 42 44 44 41 39 51 48 46
53 52 52 53 53 52 49 45 49 46 40 36 37 36 36 32 32 30 30 29 27 28 29 26 25 27 30 28 30 29 31 33 29 26 25 37 41 39 45 36 44 48 50 50
52 51 51 52 53 53 50 46 49 45 42 36 34 34 39 36 33 33 35 34 31 30 32 27 30 28 30 28 31 30 31 30 28 30 31 34 40 37 37 43 50 48 50 52
52 51 51 53 53 53 52 45 45 45 44 39 37 36 38 39 37 38 33 35 35 35 36 35 31 31 29 33 26 34 30 34 32 32 32 45 45 44 45 46 46 47 48 46
51 50 50 52 53 53 51 48 46 44 43 38 33 33 36 34 33 34 39 36 38 40 40 38 37 37 36 31 34 37 36 43 38 41 40 41 44 44 46 48 48 49 47 47
51 50 50 51 52 52 51 48 44 43 42 38 37 37 36 36 36 38 38 38 38 38 41 39 37 36 39 35 37 38 40 42 44 42 43 45 45 47 47 48 50 50 51 51
50 50 50 51 52 52 48 48 45 43 42 40 35 33 35 35 37 37 39 38 39 39 39 38 37 39 39 39 38 38 43 45 43 43 47 48 48 49 50 50 51 52 52 52
51 50 50 51 52 51 47 46 47 45 45 42 33 34 36 35 37 39 41 41 41 41 39 38 39 41 41 38 39 45 44 47 47 48 49 49 51 51 52 52 52 52 52 53
51 50 51 52 51 46 45 45 46 49 50 44 35 31 36 37 38 39 39 41 41 41 40 39 41 42 43 41 41 44 45 47 49 48 48 46 48 51 51 51 50 50 50 50
51 51 51 51 50 49 46 48 50 49 46 40 36 35 39 38 37 38 40 41 43 45 42 44 46 45 45 42 46 46 43 45 46 47 42 45 50 50 50 50 50 49 48 48
51 50 50 48 48 45 50 49 50 49 48 43 33 32 36 39 37 41 44 43 43 45 45 44 44 44 45 47 48 46 45 46 46 42 39 43 47 48 50 51 51 50 49 50
49 46 47 45 49 53 51 50 47 45 44 43 39 37 36 41 37 38 42 45 48 41 43 47 43 42 51 50 50 48 47 44 41 38 39 45 47 49 50 50 51 51 50 51
45 45 43 47 49 44 45 43 41 42 41 41 38 37 37 41 41 42 48 43 44 39 42 42 42 39 49 49 45 47 46 42 37 37 40 45 48 50 51 50 51 51 50 50
45 44 45 43 43 42 40 39 39 40 39 42 38 39 42 48 47 44 47 41 46 38 45 42 38 45 52 49 47 46 45 41 36 37 40 45 48 51 52 52 51 51 51 51
46 44 41 41 42 40 37 34 36 37 38 43 42 40 42 51 46 45 44 42 41 46 41 39 40 53 51 51 48 45 44 40 38 38 40 46 45 50 52 51 51 51 51 51
43 40 39 38 36 36 35 34 40 44 43 42 42 43 41 47 45 46 40 41 42 39 39 38 47 53 51 51 49 47 43 40 39 39 41 43 45 46 52 51 51 52 52 51
42 40 37 37 37 36 36 37 40 43 42 47 40 47 46 41 44 46 42 39 38 38 37 45 49 55 55 53 52 47 44 42 39 41 42 43 43 44 46 48 46 48 51 52
41 42 41 40 38 37 36 35 36 43 44 42 42 39 39 37 39 37 38 36 36 40 47 51 59 56 55 55 56 51 47 44 41 43 43 43 43 43 46 45 45 46 49 52
41 40 41 41 41 39 38 38 43 47 43 39 42 37 36 38 39 36 39 38 42 48 47 52 59 58 56 55 54 52 49 46 45 45 45 43 43 42 41 48 52 45 50 54
Lifted_Index
8 8 8 9 10 9 6 3 2 4 4 3 2 1 1 2 2 3 2 2 2 1 1 0 -0 -0 0 1 1 1 0 -0 -0 -0 -0 -0 -0 -1 -1 -1 -1 -1 -1 -1
8 8 9 10 10 9 6 3 2 3 4 3 1 1 1 2 3 3 3 2 2 2 1 1 0 0 1 2 2 2 1 1 0 0 -0 -0 -0 -1 -1 -1 -1 -1 -1 -0
8 8 9 10 10 9 6 3 2 3 3 2 1 1 1 2 3 3 3 3 3 2 2 1 1 0 1 2 2 2 2 2 1 1 1 0 -0 -0 -0 -0 -1 -1 -0 -0
8 9 10 10 10 8 5 3 2 2 2 2 1 1 2 2 3 3 3 3 3 3 2 2 1 1 1 2 2 2 2 2 2 1 1 1 1 0 -0 -0 -0 -0 -0 0
9 9 10 11 10 8 5 4 3 3 2 2 2 2 2 2 3 3 3 4 4 4 3 3 2 2 2 3 3 3 2 2 2 2 2 2 2 1 0 -0 -0 -0 -0 -0
9 9 10 11 10 8 6 6 5 4 3 3 3 3 3 3 4 4 4 5 5 5 5 5 5 5 5 4 4 4 3 3 3 3 2 2 2 1 -0 -1 -1 -1 -1 -1
9 9 10 11 11 9 8 7 6 4 4 4 4 4 4 5 5 5 6 6 6 6 7 6 6 6 6 5 5 4 4 3 3 3 2 2 1 -1 -1 -1 -1 -2 -2 -2
9 10 11 12 12 11 9 8 7 5 5 5 6 6 6 6 6 6 7 7 7 8 7 7 6 5 5 5 4 4 4 3 3 2 1 0 -1 -1 -1 -1 -2 -2 -2 -2
10 10 11 12 12 11 10 9 8 6 5 6 7 7 7 7 7 7 7 8 8 8 7 6 5 4 4 4 3 3 3 3 3 2 0 -1 -1 -1 -1 -1 -1 -1 -1 -1
10 11 12 12 12 12 10 9 8 7 6 7 7 7 7 7 7 7 7 7 7 7 6 5 4 4 4 3 3 3 3 3 3 2 0 -1 -0 0 -0 -1 -1 -1 -1 -1
10 11 12 12 13 12 10 9 9 8 7 7 8 8 7 7 7 6 6 6 6 6 5 5 4 4 4 4 4 3 3 3 3 2 1 0 0 1 0 -1 -1 -1 -0 -0
11 11 12 12 13 12 10 9 9 9 8 7 8 8 8 8 7 7 6 6 6 6 5 4 4 4 4 3 3 3 3 3 2 2 1 0 0 0 0 -0 -1 -0 -0 -0
11 11 12 12 13 13 11 9 9 9 7 7 7 8 8 8 8 7 6 6 6 5 5 4 3 3 3 3 3 3 3 2 2 1 1 1 1 0 1 1 0 0 0 0
11 11 12 12 13 13 12 10 9 9 8 7 7 7 8 8 8 7 7 6 6 5 5 4 3 3 3 3 3 2 2 2 2 1 1 1 1 1 1 2 1 1 1 0
11 11 11 12 13 13 11 9 9 9 8 7 6 7 7 8 8 7 7 6 6 5 4 3 3 3 3 3 3 2 3 3 3 2 2 2 2 2 2 2 2 2 1 1
11 11 12 12 13 12 9 7 8 9 8 7 6 7 7 7 7 7 6 6 5 5 4 3 3 2 2 3 2 2 2 3 3 3 3 3 3 2 3 3 3 3 3 2
11 11 12 13 13 11 8 7 8 9 8 7 6 6 6 6 6 6 5 5 4 4 4 3 2 2 2 2 2 2 2 3 3 3 3 3 3 3 4 4 4 4 4 4
12 12 12 13 12 10 8 7 8 9 8 6 6 5 5 5 5 5 4 4 4 3 3 3 2 2 2 1 1 2 3 3 3 4 4 4 3 4 5 5 5 5 5 5
13 13 12 11 10 8 8 7 8 8 7 6 6 5 4 4 4 4 3 3 3 3 3 2 2 1 1 1 1 2 3 4 4 5 5 4 4 4 5 5 5 5 6 5
13 12 10 9 8 8 8 7 6 6 6 6 5 5 4 3 3 3 2 2 3 3 2 2 2 1 1 1 2 3 3 4 5 6 6 5 4 4 5 5 6 6 6 6
11 10 9 8 8 8 7 6 6 5 5 5 5 4 3 3 3 2 2 2 2 2 2 2 2 1 0 1 2 3 4 5 6 7 7 6 5 5 5 5 6 7 7 7
10 9 9 9 8 7 6 6 5 5 4 4 4 4 3 3 2 2 1 1 2 2 2 2 2 1 0 1 2 3 4 5 7 7 7 6 5 5 5 6 6 7 6 6
9 9 8 7 7 6 5 5 5 5 4 4 3 3 3 3 3 2 1 1 2 2 2 2 1 0 0 1 2 3 4 5 7 7 7 7 6 5 5 6 6 6 6 5
8 8 7 6 6 6 5 5 4 4 4 3 3 3 3 3 3 2 1 1 1 2 2 1 0 -0 -0 0 1 2 4 5 6 7 7 7 6 5 5 5 6 6 5 5
7 7 6 5 5 5 5 5 4 4 3 3 3 3 3 3 3 2 1 1 1 1 1 0 -1 -1 -1 -0 1 2 3 5 6 6 6 6 6 6 5 5 6 5 5 5
7 6 6 5 5 5 5 5 4 4 3 3 3 2 3 3 2 2 1 0 0 0 0 -1 -1 -1 -1 -1 -0 1 3 4 5 6 6 6 6 6 6 6 6 6 5 5
7 6 6 5 5 5 5 5 4 3 3 2 2 2 2 2 2 2 1 0 -0 -0 -0 -1 -2 -2 -2 -1 -1 1 2 4 5 5 6 6 6 6 6 6 6 6 5 5